Location: Kergonan
(48.2337°N, 4.5518°W)
Time: 13:57:12
(UTC+00:00)

COSMOS 2455 - Pass Details

Date: 18 January 2020
Orbit: 902 x 907 km, 67.1° (Epoch: 17 February)

Event Time Altitude Azimuth Distance (km) Brightness Sun altitude
Rises 06:11:28 0° 199° (SSW) 3,514 5.8 -18.0°
Reaches altitude 10° 06:13:59 10° 196° (SSW) 2,578 5.2 -17.6°
Maximum altitude 06:19:52 61° 118° (ESE) 1,026 3.4 -16.6°
Drops below altitude 10° 06:25:47 10° 40° (NE) 2,598 5.6 -15.7°
Sets 06:28:19 0° 37° (NE) 3,543 6.3 -15.3°
